Fort Lauderdale, FL

10:22 PM EST on December 14, 2019 (GMT -0500)
Fort Lauderdale Executive

Weather History for KFXE - October, 2019

Change the Weather History Date:

Friday, October 25, 2019

  Actual Average Record
Temperature  
Mean Temperature 81 °F -  
Max Temperature 88 °F 86 °F 91 °F (1966)
Min Temperature 75 °F 69 °F 57 °F (1982)
Cooling Degree Days 16    
Growing Degree Days 31 (Base 50)    
Moisture  
Dew Point 73 °F    
Average Humidity 77    
Maximum Humidity 94    
Minimum Humidity 63    
Precipitation  
Precipitation 0.73 in - - ()
Sea Level Pressure  
Sea Level Pressure 30.00 in    
Wind  
Wind Speed 14 mph ()    
Max Wind Speed 25 mph    
Max Gust Speed 32 mph    
Visibility 8.9 miles    
Events Rain , Thunderstorm    
Averages and records for this station are not official NWS values.
T = Trace of Precipitation, MM = Missing Value Source: Averaged Metar Reports

Daily Weather History Graph

Daily Weather History Graph

Search for Another Location

Airport or City:

Astronomy

Oct. 25, 2019 Rise Set
Actual Time 7:25 AM EDT 6:43 PM EDT
Civil Twilight 7:01 AM EDT 7:07 PM EDT
Nautical Twilight 6:34 AM EDT 7:34 PM EDT
Astronomical Twilight 6:07 AM EDT 8:01 PM EDT
Moon 4:33 AM EDT (10/25) 5:22 PM EDT (10/25)
Length of Visible Light 12h 05m
Length of Day
11h 18m
Waning Crescent, 9% of the Moon is Illuminated
Oct 25
Waning Crescent
Oct 27
New
Nov 4
First Quarter
Nov 12
Full
Nov 19
Last Quarter

Hourly Weather History & Observations

Time (EDT) Temp. Heat Index Dew Point Humidity Pressure Visibility Wind Dir Wind Speed Gust Speed Precip Events Conditions
12:53 AM 78.1 °F - 72.0 °F 81% 30.06 in 10.0 mi ESE 16.1 mph 26.5 mph 0.00 in Rain Light Rain
1:53 AM 80.1 °F 84.2 °F 73.0 °F 79% 30.04 in 10.0 mi East 11.5 mph - 0.00 in   Partly Cloudy
2:53 AM 80.1 °F 84.5 °F 73.9 °F 81% 30.02 in 10.0 mi East 12.7 mph - N/A   Partly Cloudy
3:53 AM 80.1 °F 84.5 °F 73.9 °F 81% 30.01 in 10.0 mi East 12.7 mph - 0.00 in   Mostly Cloudy
4:53 AM 80.1 °F 84.5 °F 73.9 °F 81% 30.01 in 10.0 mi ENE 9.2 mph - 0.01 in   Scattered Clouds
5:53 AM 80.1 °F 84.2 °F 73.0 °F 79% 30.01 in 10.0 mi East 15.0 mph - N/A   Partly Cloudy
6:53 AM 80.1 °F 83.8 °F 72.0 °F 76% 30.02 in 10.0 mi East 12.7 mph - 0.00 in   Partly Cloudy
7:53 AM 81.0 °F 85.2 °F 72.0 °F 74% 30.03 in 10.0 mi East 16.1 mph 25.3 mph N/A   Scattered Clouds
8:53 AM 82.9 °F 88.8 °F 73.0 °F 72% 30.04 in 10.0 mi East 17.3 mph - N/A   Scattered Clouds
9:53 AM 84.0 °F 90.2 °F 73.0 °F 69% 30.05 in 10.0 mi East 21.9 mph 27.6 mph N/A   Scattered Clouds
10:53 AM 84.9 °F 91.4 °F 73.0 °F 67% 30.05 in 10.0 mi East 19.6 mph - N/A   Scattered Clouds
11:53 AM 84.9 °F 91.4 °F 73.0 °F 67% 30.04 in 7.0 mi East 24.2 mph 29.9 mph 0.00 in Rain Light Rain
12:53 PM 84.9 °F 92.1 °F 73.9 °F 69% 30.02 in 10.0 mi East 17.3 mph 28.8 mph 0.01 in   Scattered Clouds
1:53 PM 87.1 °F 94.5 °F 73.0 °F 63% 30.00 in 10.0 mi East 20.7 mph 27.6 mph N/A   Scattered Clouds
2:53 PM 84.9 °F 91.4 °F 73.0 °F 67% 29.99 in 7.0 mi ESE 25.3 mph 32.2 mph 0.01 in Rain , Thunderstorm Thunderstorms and Rain
3:02 PM 78.1 °F - 73.0 °F 84% 29.97 in 6.0 mi ESE 12.7 mph 32.2 mph 0.24 in Rain , Thunderstorm Thunderstorms and Rain
3:53 PM 84.0 °F 94.8 °F 78.1 °F 82% 29.96 in 10.0 mi ESE 17.3 mph 23.0 mph 0.37 in   Scattered Clouds
4:02 PM 84.0 °F 92.6 °F 75.9 °F 76% 29.95 in 10.0 mi East 20.7 mph - 0.00 in   Scattered Clouds
4:53 PM 84.0 °F 91.2 °F 73.9 °F 72% 29.95 in 10.0 mi East 18.4 mph - 0.00 in   Scattered Clouds
5:53 PM 82.0 °F 87.4 °F 73.0 °F 74% 29.95 in 10.0 mi East 19.6 mph 24.2 mph N/A   Scattered Clouds
6:53 PM 82.0 °F 86.7 °F 72.0 °F 71% 29.96 in 10.0 mi ESE 17.3 mph 23.0 mph N/A   Partly Cloudy
7:53 PM 81.0 °F 84.9 °F 71.1 °F 72% 29.97 in 10.0 mi East 18.4 mph - N/A   Partly Cloudy
8:53 PM 81.0 °F 85.2 °F 72.0 °F 74% 29.99 in 10.0 mi ESE 12.7 mph - N/A   Scattered Clouds
9:53 PM 81.0 °F 86.2 °F 73.9 °F 79% 29.99 in 10.0 mi ESE 9.2 mph - N/A   Scattered Clouds
10:20 PM 79.0 °F - 73.0 °F 82% 30.00 in 2.5 mi ESE 19.6 mph 26.5 mph 0.02 in Rain Rain
10:28 PM 77.0 °F - 73.0 °F 88% 30.00 in 4.0 mi East 9.2 mph - 0.07 in Rain , Thunderstorm Rain
10:53 PM 75.9 °F - 73.9 °F 94% 30.01 in 3.0 mi ENE 9.2 mph 21.9 mph 0.15 in Rain , Thunderstorm Rain
11:30 PM 75.9 °F - 73.9 °F 94% 29.99 in 10.0 mi ESE 8.1 mph - 0.18 in Rain Light Rain
11:53 PM 77.0 °F - 73.9 °F 90% 30.00 in 10.0 mi Calm Calm - 0.18 in   Partly Cloudy